|
NORAD ID: 27048 Int'l Code: 1989-062L
Perigee: 367.8 km
Apogee: 25,100.1 km
Inclination: 8.3 °
Period: 438.0 minutes
Semi major axis: 19104 km
Launch date: August 8, 1989
Source: France (FR)
Note: This is SATELLITE DEBRIS
Two Line Element Set (TLE):
1 27048U 89062L 13165.49420728 .00010542 00000-0 93015-2 0 4210
2 27048 008.2555 235.7352 6472760 167.0906 224.7583 03.28763501132862
Source:
NASA's NSSDC Master Catalog entry for ARIANE 44LP DEB
|